| time (UTC) | temp F | wind direction | speed MPH | gust MPH | rain 1hr in | rain 24hr in | rain mn in | humidity % | barometer mb |
| 20260905050055 | 83 | 0 | 0.0 | 4.0 | 0.00 | 0.00 | 0.00 | 34 | 1020.5 |
| 20260905044554 | 82 | 38 | 0.0 | 5.0 | 0.00 | 0.00 | 0.00 | 34 | 1020.4 |
| 20260905043059 | 82 | 0 | 0.0 | 3.0 | 0.00 | 0.00 | 0.00 | 32 | 1020.6 |
| 20260905041554 | 84 | 0 | 0.0 | 3.0 | 0.00 | 0.00 | 0.00 | 30 | 1020.8 |
| 20260905040056 | 84 | 0 | 0.0 | 10.0 | 0.00 | 0.00 | 0.00 | 31 | 1021.0 |
| 20260905034553 | 84 | 0 | 0.0 | 4.0 | 0.00 | 0.00 | 0.00 | 30 | 1021.1 |
| 20260905033054 | 84 | 0 | 0.0 | 4.0 | 0.00 | 0.00 | 0.00 | 30 | 1021.4 |
| 20260905031559 | 83 | 18 | 0.0 | 4.0 | 0.00 | 0.00 | 0.00 | 32 | 1021.7 |
| 20260905024615 | 82 | 281 | 0.0 | 3.0 | 0.00 | 0.00 | 0.00 | 35 | 1022.3 |
| 20260905023059 | 81 | 0 | 0.0 | 2.0 | 0.00 | 0.00 | 0.00 | 36 | 1022.6 |
| 20260905021556 | 80 | 37 | 0.0 | 2.0 | 0.00 | 0.00 | 0.00 | 37 | 1022.9 |
| 20260905020054 | 79 | 0 | 0.0 | 3.0 | 0.00 | 0.00 | 0.00 | 40 | 1023.5 |
| 20260905014558 | 78 | 0 | 0.0 | 4.0 | 0.00 | 0.00 | 0.00 | 45 | 1023.6 |
| 20260905013056 | 78 | 0 | 0.0 | 8.0 | 0.00 | 0.00 | 0.00 | 46 | 1023.8 |
| 20260905011600 | 77 | 0 | 0.0 | 3.0 | 0.00 | 0.00 | 0.00 | 50 | 1024.4 |
| 20260905010054 | 77 | 0 | 0.0 | 3.0 | 0.00 | 0.00 | 0.00 | 51 | 1024.4 |
| 20260905004558 | 77 | 0 | 0.0 | 3.0 | 0.00 | 0.00 | 0.00 | 49 | 1024.8 |
| 20260905003157 | 77 | 0 | 0.0 | 4.0 | 0.00 | 0.00 | 0.00 | 50 | 1024.9 |
| 20260905001555 | 76 | 9 | 0.0 | 3.0 | 0.00 | 0.00 | 0.00 | 54 | 1025.2 |
| 20260905000059 | 75 | 0 | 0.0 | 0.0 | 0.00 | 0.00 | 0.00 | 52 | 1025.3 |
| 20260904234557 | 74 | 0 | 0.0 | 1.0 | 0.00 | 0.00 | 0.00 | 54 | 1025.3 |
| 20260904233102 | 75 | 0 | 0.0 | 0.0 | 0.00 | 0.00 | 0.00 | 51 | 1025.6 |
| 20260904231555 | 74 | 0 | 0.0 | 0.0 | 0.00 | 0.00 | 0.00 | 49 | 1025.6 |
| 20260904230059 | 73 | 0 | 0.0 | 0.0 | 0.00 | 0.00 | 0.00 | 50 | 1025.6 |
| 20260904224558 | 74 | 0 | 0.0 | 0.0 | 0.00 | 0.00 | 0.00 | 43 | 1025.7 |
| 20260904223109 | 74 | 0 | 0.0 | 0.0 | 0.00 | 0.00 | 0.00 | 30 | 1025.8 |
| 20260904221600 | 73 | 0 | 0.0 | 0.0 | 0.00 | 0.00 | 0.00 | 25 | 1025.7 |
| 20260904220054 | 71 | 0 | 0.0 | 0.0 | 0.00 | 0.00 | 0.00 | 31 | 1025.6 |
| 20260904214602 | 69 | 0 | 0.0 | 0.0 | 0.00 | 0.00 | 0.00 | 40 | 1025.5 |
| 20260904213054 | 67 | 0 | 0.0 | 0.0 | 0.00 | 0.00 | 0.00 | 42 | 1025.3 |
| 20260904211555 | 66 | 0 | 0.0 | 0.0 | 0.00 | 0.00 | 0.00 | 46 | 1025.5 |
| 20260904210055 | 62 | 0 | 0.0 | 0.0 | 0.00 | 0.00 | 0.00 | 51 | 1025.3 |
| 20260904204555 | 60 | 0 | 0.0 | 0.0 | 0.00 | 0.00 | 0.00 | 52 | 1025.1 |
| 20260904203058 | 59 | 0 | 0.0 | 0.0 | 0.00 | 0.00 | 0.00 | 52 | 1025.1 |
| 20260904201602 | 59 | 0 | 0.0 | 0.0 | 0.00 | 0.00 | 0.00 | 52 | 1025.1 |
| 20260904200058 | 61 | 0 | 0.0 | 0.0 | 0.00 | 0.00 | 0.00 | 50 | 1024.9 |
| 20260904194554 | 62 | 0 | 0.0 | 0.0 | 0.00 | 0.00 | 0.00 | 50 | 1024.8 |
| 20260904193056 | 62 | 0 | 0.0 | 0.0 | 0.00 | 0.00 | 0.00 | 48 | 1024.6 |
| 20260904191554 | 63 | 0 | 0.0 | 9.0 | 0.00 | 0.00 | 0.00 | 48 | 1024.4 |
| 20260904190056 | 63 | 167 | 2.0 | 11.0 | 0.00 | 0.00 | 0.00 | 49 | 1024.2 |
| 20260904184601 | 63 | 144 | 3.0 | 8.0 | 0.00 | 0.00 | 0.00 | 49 | 1024.3 |
| 20260904183056 | 63 | 154 | 2.0 | 8.0 | 0.00 | 0.00 | 0.00 | 49 | 1024.2 |
| 20260904181557 | 63 | 123 | 3.0 | 9.0 | 0.00 | 0.00 | 0.00 | 49 | 1024.2 |
| 20260904174559 | 63 | 148 | 4.0 | 8.0 | 0.00 | 0.00 | 0.00 | 49 | 1024.2 |
| 20260904173056 | 63 | 154 | 2.0 | 9.0 | 0.00 | 0.00 | 0.00 | 48 | 1024.1 |
| 20260904171555 | 63 | 155 | 2.0 | 8.0 | 0.00 | 0.00 | 0.00 | 49 | 1024.2 |
| 20260904170049 | 63 | 146 | 3.0 | 9.0 | 0.00 | 0.00 | 0.00 | 49 | 1024.4 |
| 20260904164558 | 63 | 144 | 3.0 | 9.0 | 0.00 | 0.00 | 0.00 | 49 | 1024.4 |
| 20260904163059 | 62 | 0 | 0.0 | 0.0 | 0.00 | 0.00 | 0.00 | 50 | 1024.5 |
| 20260904161550 | 62 | 0 | 0.0 | 8.0 | 0.00 | 0.00 | 0.00 | 50 | 1024.5 |
| 20260904160057 | 62 | 0 | 0.0 | 5.0 | 0.00 | 0.00 | 0.00 | 50 | 1024.6 |
| 20260904154555 | 62 | 0 | 0.0 | 5.0 | 0.00 | 0.00 | 0.00 | 51 | 1024.7 |
| 20260904153102 | 62 | 0 | 0.0 | 0.0 | 0.00 | 0.00 | 0.00 | 50 | 1024.7 |
| 20260904151548 | 62 | 0 | 0.0 | 0.0 | 0.00 | 0.00 | 0.00 | 50 | 1024.9 |
| 20260904150056 | 62 | 0 | 0.0 | 0.0 | 0.00 | 0.00 | 0.00 | 50 | 1024.8 |
| 20260904144553 | 62 | 0 | 0.0 | 0.0 | 0.00 | 0.00 | 0.00 | 49 | 1024.9 |
| 20260904143051 | 63 | 0 | 0.0 | 0.0 | 0.00 | 0.00 | 0.00 | 48 | 1024.9 |
| 20260904141617 | 63 | 0 | 0.0 | 5.0 | 0.00 | 0.00 | 0.00 | 48 | 1025.0 |
| 20260904140056 | 63 | 0 | 0.0 | 8.0 | 0.00 | 0.00 | 0.00 | 48 | 1024.9 |
| 20260904134556 | 62 | 0 | 0.0 | 0.0 | 0.00 | 0.00 | 0.00 | 50 | 1024.9 |
| 20260904133049 | 62 | 0 | 0.0 | 0.0 | 0.00 | 0.00 | 0.00 | 50 | 1024.9 |
| 20260904131631 | 62 | 0 | 0.0 | 0.0 | 0.00 | 0.00 | 0.00 | 51 | 1024.9 |
| 20260904130054 | 62 | 0 | 0.0 | 0.0 | 0.00 | 0.00 | 0.00 | 50 | 1025.1 |
| 20260904124551 | 62 | 0 | 0.0 | 0.0 | 0.00 | 0.00 | 0.00 | 50 | 1025.2 |
| 20260904123107 | 63 | 0 | 0.0 | 0.0 | 0.00 | 0.00 | 0.00 | 49 | 1025.3 |
| 20260904121557 | 63 | 0 | 0.0 | 0.0 | 0.00 | 0.00 | 0.00 | 49 | 1025.3 |
| 20260904120057 | 64 | 0 | 0.0 | 0.0 | 0.00 | 0.00 | 0.00 | 49 | 1025.4 |
| 20260904114550 | 64 | 0 | 0.0 | 0.0 | 0.00 | 0.00 | 0.00 | 48 | 1025.5 |
| 20260904113049 | 64 | 0 | 0.0 | 0.0 | 0.00 | 0.00 | 0.00 | 48 | 1025.3 |
| 20260904111557 | 64 | 0 | 0.0 | 0.0 | 0.00 | 0.00 | 0.00 | 47 | 1025.3 |
| 20260904110053 | 65 | 0 | 0.0 | 11.0 | 0.00 | 0.00 | 0.00 | 47 | 1025.0 |
| 20260904104554 | 65 | 180 | 2.0 | 6.0 | 0.00 | 0.00 | 0.00 | 46 | 1024.7 |
| 20260904103049 | 65 | 0 | 0.0 | 0.0 | 0.00 | 0.00 | 0.00 | 46 | 1024.7 |
| 20260904101603 | 66 | 0 | 0.0 | 0.0 | 0.00 | 0.00 | 0.00 | 45 | 1024.7 |
| 20260904100053 | 67 | 0 | 0.0 | 0.0 | 0.00 | 0.00 | 0.00 | 45 | 1024.6 |
| 20260904094550 | 67 | 0 | 0.0 | 0.0 | 0.00 | 0.00 | 0.00 | 44 | 1024.5 |
| 20260904093054 | 68 | 0 | 0.0 | 0.0 | 0.00 | 0.00 | 0.00 | 43 | 1024.3 |
| 20260904091553 | 69 | 0 | 0.0 | 6.0 | 0.00 | 0.00 | 0.00 | 42 | 1024.2 |
| 20260904090052 | 69 | 174 | 0.0 | 6.0 | 0.00 | 0.00 | 0.00 | 41 | 1024.1 |
| 20260904084643 | 70 | 0 | 3.0 | 7.0 | 0.00 | 0.00 | 0.00 | 41 | 1024.1 |
| 20260904083059 | 70 | 202 | 3.0 | 6.0 | 0.00 | 0.00 | 0.00 | 41 | 1023.9 |
| 20260904081554 | 71 | 0 | 0.0 | 0.0 | 0.00 | 0.00 | 0.00 | 41 | 1023.6 |
| 20260904080059 | 72 | 0 | 0.0 | 0.0 | 0.00 | 0.00 | 0.00 | 40 | 1023.5 |
| 20260904074622 | 73 | 0 | 0.0 | 9.0 | 0.00 | 0.00 | 0.00 | 38 | 1023.2 |
| 20260904073055 | 74 | 173 | 3.0 | 10.0 | 0.00 | 0.00 | 0.00 | 37 | 1023.3 |
| 20260904071551 | 75 | 161 | 4.0 | 12.0 | 0.00 | 0.00 | 0.00 | 36 | 1023.1 |
| 20260904070059 | 76 | 174 | 7.0 | 17.0 | 0.00 | 0.00 | 0.00 | 34 | 1023.0 |
| 20260904064556 | 77 | 196 | 7.0 | 17.0 | 0.00 | 0.00 | 0.00 | 34 | 1023.0 |
| 20260904063107 | 78 | 233 | 5.0 | 14.0 | 0.00 | 0.00 | 0.00 | 33 | 1022.9 |
| 20260904061558 | 78 | 198 | 6.0 | 18.0 | 0.00 | 0.00 | 0.00 | 32 | 1022.9 |
| 20260904060112 | 79 | 128 | 6.0 | 19.0 | 0.00 | 0.00 | 0.00 | 31 | 1022.9 |
| 20260904054555 | 79 | 171 | 8.0 | 18.0 | 0.00 | 0.00 | 0.00 | 28 | 1022.9 |
| 20260904053049 | 80 | 155 | 3.0 | 16.0 | 0.00 | 0.00 | 0.00 | 26 | 1022.9 |
| 20260904051551 | 80 | 167 | 7.0 | 17.0 | 0.00 | 0.00 | 0.00 | 25 | 1022.8 |